FABRT EDDN-EPKK

Flight info

Callsign FABRT
Flight time 1h 35m
Altitude 27000
Route ERETO1G/28 ERETO Z715 KULOK L984 OKG DCT PADKA
Aircraft PC12/L-SDFGRWY/S

Departure

Time 2026-05-05 16:27
Airport Nuremberg Airport (EDDN)

Arrival

Time 2026-05-05 18:02
Airport Kraków John Paul II International Airport (EPKK)
Time Latitude Longitude Altitude Speed Heading
2026-05-05 15:59 49.49556 11.07041 1022 ft 0 kts
2026-05-05 16:22 49.49589 11.07095 1022 ft 12 kts 98°
2026-05-05 16:22 49.49624 11.07387 1022 ft 17 kts 99°
2026-05-05 16:23 49.49592 11.07711 1023 ft 13 kts 99°
2026-05-05 16:23 49.49578 11.07843 1023 ft 12 kts 98°
2026-05-05 16:23 49.49557 11.08076 1022 ft 10 kts 98°
2026-05-05 16:24 49.49545 11.08183 1024 ft 10 kts 100°
2026-05-05 16:24 49.49535 11.08283 1025 ft 9 kts 98°
2026-05-05 16:24 49.49602 11.08366 1029 ft 8 kts 35°
2026-05-05 16:25 49.49651 11.08460 1031 ft 15 kts 52°
2026-05-05 16:25 49.49799 11.08525 1033 ft 15 kts 286°
2026-05-05 16:25 49.49801 11.08502 1033 ft 0 kts 277°
2026-05-05 16:26 49.49825 11.08264 1029 ft 48 kts 278°
2026-05-05 16:26 49.49994 11.06588 1370 ft 94 kts 277°
2026-05-05 16:27 49.50123 11.05498 1619 ft 113 kts 280°
2026-05-05 16:27 49.50244 11.04250 1999 ft 123 kts 275°
2026-05-05 16:27 49.50357 11.02895 2388 ft 135 kts 278°
2026-05-05 16:27 49.50499 11.01385 2770 ft 150 kts 277°
2026-05-05 16:28 49.50659 10.99735 3150 ft 162 kts 277°
2026-05-05 16:28 49.50832 10.97973 3522 ft 170 kts 277°
2026-05-05 16:28 49.51012 10.96150 3898 ft 174 kts 277°
2026-05-05 16:28 49.51428 10.94388 4279 ft 182 kts 301°
2026-05-05 16:29 49.52366 10.93035 4662 ft 190 kts 327°
2026-05-05 16:29 49.53657 10.92483 5033 ft 198 kts 356°
2026-05-05 16:29 49.55046 10.92507 5407 ft 201 kts 359°
2026-05-05 16:29 49.56448 10.92562 5778 ft 203 kts 359°
2026-05-05 16:30 49.57868 10.92605 6164 ft 205 kts 359°
2026-05-05 16:30 49.59303 10.92642 6527 ft 207 kts 359°
2026-05-05 16:30 49.60752 10.92680 6809 ft 214 kts 359°
2026-05-05 16:30 49.62308 10.92722 6813 ft 230 kts 359°
2026-05-05 16:31 49.63950 10.92766 6823 ft 241 kts 359°
2026-05-05 16:31 49.65657 10.92812 6822 ft 248 kts 359°
2026-05-05 16:31 49.67397 10.92857 6822 ft 252 kts 359°
2026-05-05 16:31 49.69116 10.93045 7132 ft 237 kts 10°
2026-05-05 16:32 49.70595 10.93821 7837 ft 216 kts 26°
2026-05-05 16:32 49.71820 10.95086 8321 ft 209 kts 42°
2026-05-05 16:32 49.72913 10.96533 8778 ft 206 kts 41°
2026-05-05 16:32 49.74011 10.97975 9244 ft 207 kts 43°
2026-05-05 16:33 49.75110 10.99430 9713 ft 209 kts 43°
2026-05-05 16:33 49.76215 11.00896 10143 ft 211 kts 43°
2026-05-05 16:33 49.77329 11.02372 10545 ft 211 kts 43°
2026-05-05 16:33 49.78448 11.03858 10908 ft 213 kts 43°
2026-05-05 16:34 49.79576 11.05353 11278 ft 214 kts 43°
2026-05-05 16:34 49.80689 11.06830 11645 ft 214 kts 43°
2026-05-05 16:34 49.81821 11.08332 12023 ft 214 kts 43°
2026-05-05 16:34 49.82954 11.09839 12404 ft 216 kts 43°
2026-05-05 16:35 49.83995 11.11494 12783 ft 213 kts 59°
2026-05-05 16:35 49.84667 11.13485 13175 ft 211 kts 68°
2026-05-05 16:35 49.85301 11.15541 13572 ft 212 kts 68°
2026-05-05 16:35 49.85943 11.17610 13928 ft 214 kts 68°
2026-05-05 16:36 49.86588 11.19689 14284 ft 215 kts 68°
2026-05-05 16:36 49.87235 11.21781 14646 ft 216 kts 68°
2026-05-05 16:36 49.87886 11.23884 15005 ft 217 kts 68°
2026-05-05 16:36 49.88541 11.26007 15371 ft 219 kts 68°
2026-05-05 16:37 49.89199 11.28139 15745 ft 220 kts 68°
2026-05-05 16:37 49.89859 11.30279 16121 ft 220 kts 68°
2026-05-05 16:37 49.90521 11.32425 16501 ft 220 kts 68°
2026-05-05 16:37 49.91180 11.34562 16885 ft 219 kts 68°
2026-05-05 16:38 49.91835 11.36690 17269 ft 218 kts 68°
2026-05-05 16:38 49.92487 11.38811 17665 ft 218 kts 69°
2026-05-05 16:38 49.93204 11.40882 18062 ft 220 kts 57°
2026-05-05 16:38 49.94253 11.42615 18415 ft 221 kts 47°
2026-05-05 16:39 49.95341 11.44302 18751 ft 221 kts 48°
2026-05-05 16:39 49.96422 11.45996 19105 ft 221 kts 48°
2026-05-05 16:39 49.97501 11.47686 19467 ft 220 kts 48°
2026-05-05 16:39 49.98581 11.49377 19830 ft 220 kts 48°
2026-05-05 16:40 49.99661 11.51068 20197 ft 221 kts 48°
2026-05-05 16:40 50.00744 11.52766 20572 ft 221 kts 48°
2026-05-05 16:40 50.01828 11.54465 20950 ft 222 kts 48°
2026-05-05 16:40 50.02914 11.56170 21335 ft 222 kts 48°
2026-05-05 16:41 50.03986 11.57854 21712 ft 222 kts 48°
2026-05-05 16:41 50.05076 11.59566 22105 ft 223 kts 48°
2026-05-05 16:41 50.06174 11.61317 22513 ft 223 kts 52°
2026-05-05 16:41 50.06952 11.63321 22916 ft 218 kts 75°
2026-05-05 16:42 50.07262 11.65583 23336 ft 211 kts 95°
2026-05-05 16:42 50.07251 11.67853 23690 ft 210 kts 98°
2026-05-05 16:42 50.07234 11.70131 24036 ft 211 kts 98°
2026-05-05 16:42 50.07219 11.72418 24388 ft 212 kts 98°
2026-05-05 16:43 50.07203 11.74710 24742 ft 212 kts 98°
2026-05-05 16:43 50.07185 11.77004 25102 ft 212 kts 98°
2026-05-05 16:43 50.07167 11.79307 25466 ft 213 kts 98°
2026-05-05 16:43 50.07149 11.81617 25836 ft 213 kts 98°
2026-05-05 16:44 50.07129 11.83923 26206 ft 211 kts 98°
2026-05-05 16:44 50.07112 11.86178 26580 ft 206 kts 99°
2026-05-05 16:44 50.07091 11.88415 26775 ft 213 kts 99°
2026-05-05 16:44 50.07062 11.90795 26781 ft 227 kts 98°
2026-05-05 16:45 50.07045 11.92481 26787 ft 235 kts 98°
2026-05-05 16:45 50.07022 11.95055 26788 ft 246 kts 98°
2026-05-05 16:45 50.06999 11.97759 26772 ft 253 kts 97°
2026-05-05 16:45 50.06972 12.00540 26773 ft 260 kts 97°
2026-05-05 16:46 50.06944 12.03383 26775 ft 265 kts 97°
2026-05-05 16:46 50.06915 12.06265 26776 ft 269 kts 97°
2026-05-05 16:46 50.06885 12.09192 26776 ft 272 kts 97°
2026-05-05 16:46 50.06854 12.12151 26774 ft 274 kts 96°
2026-05-05 16:47 50.06821 12.15121 26770 ft 276 kts 96°
2026-05-05 16:47 50.06788 12.18112 26769 ft 277 kts 96°
2026-05-05 16:47 50.06754 12.21115 26758 ft 278 kts 96°
2026-05-05 16:47 50.06719 12.24129 26758 ft 278 kts 97°
2026-05-05 16:48 50.06683 12.27141 26759 ft 279 kts 97°
2026-05-05 16:48 50.06646 12.30160 26762 ft 279 kts 97°
2026-05-05 16:48 50.06608 12.33194 26757 ft 281 kts 97°
2026-05-05 16:48 50.06570 12.36230 26755 ft 281 kts 97°
2026-05-05 16:49 50.06530 12.39272 26756 ft 280 kts 97°
2026-05-05 16:49 50.06535 12.42309 26750 ft 280 kts 94°
2026-05-05 16:49 50.06550 12.45345 26753 ft 280 kts 95°
2026-05-05 16:49 50.06539 12.48385 26757 ft 281 kts 95°
2026-05-05 16:50 50.06540 12.51426 26762 ft 281 kts 95°
2026-05-05 16:50 50.06551 12.54432 26765 ft 281 kts 94°
2026-05-05 16:50 50.06558 12.57519 26769 ft 282 kts 95°
2026-05-05 16:50 50.06562 12.60570 26771 ft 282 kts 95°
2026-05-05 16:51 50.06564 12.63625 26773 ft 282 kts 95°
2026-05-05 16:51 50.06567 12.66633 26777 ft 282 kts 95°
2026-05-05 16:51 50.06569 12.69688 26780 ft 282 kts 95°
2026-05-05 16:51 50.06570 12.72747 26783 ft 283 kts 95°
2026-05-05 16:52 50.06570 12.75807 26784 ft 283 kts 95°
2026-05-05 16:52 50.06569 12.78851 26785 ft 283 kts 95°
2026-05-05 16:52 50.06568 12.81911 26786 ft 283 kts 95°
2026-05-05 16:52 50.06566 12.84980 26788 ft 284 kts 95°
2026-05-05 16:53 50.06562 12.88055 26790 ft 284 kts 95°
2026-05-05 16:53 50.06559 12.91134 26787 ft 285 kts 95°
2026-05-05 16:53 50.06553 12.94220 26787 ft 285 kts 95°
2026-05-05 16:53 50.06547 12.97305 26787 ft 286 kts 94°
2026-05-05 16:54 50.06541 13.00408 26786 ft 286 kts 95°
2026-05-05 16:54 50.06534 13.03513 26784 ft 287 kts 95°
2026-05-05 16:54 50.06526 13.06618 26783 ft 287 kts 95°
2026-05-05 16:54 50.06517 13.09724 26782 ft 287 kts 95°
2026-05-05 16:55 50.06507 13.12823 26754 ft 287 kts 95°
2026-05-05 16:55 50.06497 13.15932 26754 ft 287 kts 95°
2026-05-05 16:55 50.06486 13.19034 26755 ft 287 kts 95°
2026-05-05 16:55 50.06473 13.22136 26754 ft 286 kts 95°
2026-05-05 16:56 50.06460 13.25235 26755 ft 286 kts 95°
2026-05-05 16:56 50.06447 13.28333 26752 ft 286 kts 95°
2026-05-05 16:56 50.06432 13.31423 26753 ft 285 kts 95°
2026-05-05 16:56 50.06416 13.34513 26754 ft 286 kts 95°
2026-05-05 16:57 50.06400 13.37606 26755 ft 286 kts 95°
2026-05-05 16:57 50.06383 13.40698 26755 ft 286 kts 95°
2026-05-05 16:57 50.06365 13.43792 26754 ft 286 kts 95°
2026-05-05 16:57 50.06347 13.46877 26753 ft 286 kts 95°
2026-05-05 16:58 50.06327 13.49970 26752 ft 286 kts 95°
2026-05-05 16:58 50.06307 13.53066 26752 ft 286 kts 95°
2026-05-05 16:58 50.06286 13.56153 26752 ft 286 kts 95°
2026-05-05 16:58 50.06264 13.59253 26751 ft 286 kts 95°
2026-05-05 16:59 50.06241 13.62339 26751 ft 286 kts 95°
2026-05-05 16:59 50.06217 13.65433 26751 ft 285 kts 95°
2026-05-05 16:59 50.06193 13.68517 26751 ft 285 kts 95°
2026-05-05 16:59 50.06168 13.71601 26751 ft 285 kts 95°
2026-05-05 17:00 50.06141 13.74698 26767 ft 286 kts 96°
2026-05-05 17:00 50.06113 13.77799 26767 ft 288 kts 95°
2026-05-05 17:00 50.06087 13.80928 26762 ft 289 kts 95°
2026-05-05 17:00 50.06059 13.84050 26763 ft 289 kts 95°
2026-05-05 17:01 50.06027 13.87183 26762 ft 289 kts 95°
2026-05-05 17:01 50.05996 13.90316 26763 ft 290 kts 95°
2026-05-05 17:01 50.05966 13.93405 26763 ft 290 kts 95°
2026-05-05 17:01 50.05933 13.96586 26763 ft 290 kts 95°
2026-05-05 17:02 50.05900 13.99680 26763 ft 290 kts 95°
2026-05-05 17:02 50.05866 14.02804 26765 ft 289 kts 95°
2026-05-05 17:02 50.05832 14.05941 26765 ft 289 kts 95°
2026-05-05 17:02 50.05796 14.09070 26746 ft 289 kts 95°
2026-05-05 17:03 50.05760 14.12192 26748 ft 289 kts 95°
2026-05-05 17:03 50.05722 14.15359 26746 ft 289 kts 95°
2026-05-05 17:03 50.05684 14.18480 26747 ft 288 kts 95°
2026-05-05 17:03 50.05645 14.21602 26746 ft 288 kts 95°
2026-05-05 17:04 50.05606 14.24674 26743 ft 288 kts 95°
2026-05-05 17:04 50.05565 14.27793 26743 ft 288 kts 95°
2026-05-05 17:04 50.05524 14.30902 26740 ft 287 kts 95°
2026-05-05 17:04 50.05482 14.34002 26740 ft 287 kts 95°
2026-05-05 17:05 50.05437 14.37193 26741 ft 287 kts 95°
2026-05-05 17:05 50.05395 14.40225 26742 ft 287 kts 95°
2026-05-05 17:05 50.05350 14.43333 26742 ft 287 kts 95°
2026-05-05 17:05 50.05305 14.46434 26742 ft 287 kts 95°
2026-05-05 17:06 50.05259 14.49544 26741 ft 287 kts 95°
2026-05-05 17:06 50.05212 14.52651 26740 ft 287 kts 95°
2026-05-05 17:06 50.05164 14.55755 26740 ft 287 kts 95°
2026-05-05 17:06 50.05115 14.58862 26739 ft 287 kts 95°
2026-05-05 17:07 50.05066 14.61962 26741 ft 287 kts 95°
2026-05-05 17:07 50.05016 14.65057 26742 ft 286 kts 95°
2026-05-05 17:07 50.04965 14.68158 26743 ft 286 kts 95°
2026-05-05 17:07 50.04913 14.71250 26744 ft 286 kts 95°
2026-05-05 17:08 50.04860 14.74345 26745 ft 286 kts 95°
2026-05-05 17:08 50.04807 14.77435 26744 ft 286 kts 95°
2026-05-05 17:08 50.04753 14.80521 26745 ft 286 kts 95°
2026-05-05 17:08 50.04699 14.83529 26746 ft 286 kts 95°
2026-05-05 17:09 50.04643 14.86627 26752 ft 287 kts 95°
2026-05-05 17:09 50.04586 14.89736 26749 ft 288 kts 95°
2026-05-05 17:09 50.04528 14.92861 26753 ft 289 kts 95°
2026-05-05 17:09 50.04469 14.95982 26749 ft 289 kts 95°
2026-05-05 17:10 50.04409 14.99099 26747 ft 289 kts 95°
2026-05-05 17:10 50.04349 15.02230 26749 ft 289 kts 95°
2026-05-05 17:10 50.04287 15.05345 26749 ft 289 kts 95°
2026-05-05 17:10 50.04225 15.08469 26755 ft 289 kts 95°
2026-05-05 17:11 50.04162 15.11587 26749 ft 288 kts 95°
2026-05-05 17:11 50.04098 15.14706 26744 ft 288 kts 95°
2026-05-05 17:11 50.04034 15.17822 26744 ft 288 kts 95°
2026-05-05 17:11 50.03969 15.20920 26744 ft 288 kts 95°
2026-05-05 17:12 50.03903 15.24034 26741 ft 288 kts 94°
2026-05-05 17:12 50.03835 15.27148 26741 ft 288 kts 94°
2026-05-05 17:12 50.03766 15.30271 26745 ft 288 kts 94°
2026-05-05 17:12 50.03697 15.33388 26739 ft 288 kts 94°
2026-05-05 17:13 50.03627 15.36509 26739 ft 288 kts 95°
2026-05-05 17:13 50.03557 15.39623 26736 ft 288 kts 95°
2026-05-05 17:13 50.03486 15.42735 26735 ft 288 kts 95°
2026-05-05 17:13 50.03414 15.45841 26735 ft 287 kts 95°
2026-05-05 17:14 50.03341 15.48944 26735 ft 287 kts 95°
2026-05-05 17:14 50.03268 15.52048 26733 ft 287 kts 95°
2026-05-05 17:14 50.03193 15.55166 26737 ft 287 kts 95°
2026-05-05 17:14 50.03118 15.58245 26738 ft 286 kts 95°
2026-05-05 17:15 50.03043 15.61340 26738 ft 286 kts 95°
2026-05-05 17:15 50.02966 15.64434 26738 ft 286 kts 95°
2026-05-05 17:15 50.02888 15.67530 26738 ft 286 kts 95°
2026-05-05 17:15 50.02810 15.70618 26740 ft 285 kts 95°
2026-05-05 17:16 50.02732 15.73692 26742 ft 285 kts 95°
2026-05-05 17:16 50.02652 15.76765 26741 ft 284 kts 95°
2026-05-05 17:16 50.02572 15.79837 26741 ft 284 kts 95°
2026-05-05 17:16 50.02491 15.82907 26741 ft 284 kts 95°
2026-05-05 17:17 50.02410 15.85971 26741 ft 284 kts 95°
2026-05-05 17:17 50.02327 15.89037 26741 ft 284 kts 95°
2026-05-05 17:17 50.02244 15.92096 26740 ft 283 kts 95°
2026-05-05 17:17 50.02160 15.95158 26736 ft 283 kts 95°
2026-05-05 17:18 50.02077 15.98175 26736 ft 283 kts 95°
2026-05-05 17:18 50.01992 16.01229 26736 ft 283 kts 95°
2026-05-05 17:18 50.01905 16.04290 26736 ft 283 kts 95°
2026-05-05 17:18 50.01818 16.07343 26741 ft 283 kts 95°
2026-05-05 17:19 50.01731 16.10404 26743 ft 283 kts 95°
2026-05-05 17:19 50.01642 16.13458 26743 ft 283 kts 95°
2026-05-05 17:19 50.01553 16.16515 26739 ft 283 kts 95°
2026-05-05 17:19 50.01463 16.19567 26740 ft 283 kts 95°
2026-05-05 17:20 50.01371 16.22622 26743 ft 283 kts 95°
2026-05-05 17:20 50.01279 16.25679 26748 ft 283 kts 95°
2026-05-05 17:20 50.01187 16.28734 26748 ft 283 kts 95°
2026-05-05 17:20 50.01094 16.31788 26749 ft 283 kts 95°
2026-05-05 17:21 50.00999 16.34847 26751 ft 283 kts 95°
2026-05-05 17:21 50.00904 16.37907 26750 ft 283 kts 95°
2026-05-05 17:21 50.00808 16.40960 26751 ft 283 kts 95°
2026-05-05 17:22 50.00614 16.47080 26753 ft 283 kts 95°
2026-05-05 17:22 50.00515 16.50143 26754 ft 284 kts 95°
2026-05-05 17:22 50.00416 16.53217 26754 ft 285 kts 95°
2026-05-05 17:22 50.00315 16.56296 26754 ft 285 kts 95°
2026-05-05 17:23 50.00214 16.59377 26757 ft 286 kts 95°
2026-05-05 17:23 50.00029 16.64921 26754 ft 286 kts 95°
2026-05-05 17:23 49.99925 16.68011 26754 ft 286 kts 95°
2026-05-05 17:24 49.99819 16.71102 26757 ft 286 kts 95°
2026-05-05 17:24 49.99714 16.74187 26756 ft 287 kts 95°
2026-05-05 17:24 49.99607 16.77288 26757 ft 287 kts 95°
2026-05-05 17:24 49.99500 16.80375 26756 ft 286 kts 95°
2026-05-05 17:25 49.99391 16.83467 26764 ft 286 kts 95°
2026-05-05 17:25 49.99319 16.85513 26764 ft 286 kts 95°
2026-05-05 17:25 49.99173 16.89634 26764 ft 286 kts 95°
2026-05-05 17:25 49.99063 16.92715 26763 ft 285 kts 95°
2026-05-05 17:26 49.98951 16.95796 26764 ft 285 kts 95°
2026-05-05 17:26 49.98840 16.98864 26764 ft 285 kts 95°
2026-05-05 17:26 49.98727 17.01937 26771 ft 285 kts 95°
2026-05-05 17:26 49.98614 17.05011 26771 ft 285 kts 95°
2026-05-05 17:27 49.98500 17.08075 26768 ft 284 kts 95°
2026-05-05 17:27 49.98385 17.11138 26766 ft 284 kts 95°
2026-05-05 17:27 49.98271 17.14195 26769 ft 283 kts 95°
2026-05-05 17:27 49.98155 17.17250 26767 ft 283 kts 95°
2026-05-05 17:28 49.98038 17.20302 26773 ft 283 kts 95°
2026-05-05 17:28 49.97920 17.23350 26774 ft 283 kts 95°
2026-05-05 17:28 49.97802 17.26396 26774 ft 283 kts 96°
2026-05-05 17:28 49.97683 17.29438 26774 ft 282 kts 96°
2026-05-05 17:29 49.97563 17.32486 26769 ft 282 kts 95°
2026-05-05 17:29 49.97443 17.35537 26771 ft 283 kts 95°
2026-05-05 17:29 49.97321 17.38589 26777 ft 283 kts 96°
2026-05-05 17:29 49.97198 17.41656 26777 ft 284 kts 95°
2026-05-05 17:30 49.97075 17.44715 26776 ft 284 kts 95°
2026-05-05 17:30 49.96951 17.47783 26777 ft 284 kts 96°
2026-05-05 17:30 49.96828 17.50807 26777 ft 284 kts 96°
2026-05-05 17:30 49.96700 17.53916 26777 ft 285 kts 95°
2026-05-05 17:31 49.96572 17.56983 26771 ft 284 kts 95°
2026-05-05 17:31 49.96445 17.60041 26770 ft 284 kts 96°
2026-05-05 17:31 49.96316 17.63102 26770 ft 284 kts 96°
2026-05-05 17:31 49.96187 17.66170 26771 ft 284 kts 96°
2026-05-05 17:32 49.96057 17.69230 26776 ft 284 kts 95°
2026-05-05 17:32 49.95927 17.72286 26774 ft 283 kts 95°
2026-05-05 17:32 49.95795 17.75344 26774 ft 284 kts 96°
2026-05-05 17:32 49.95662 17.78413 26778 ft 284 kts 95°
2026-05-05 17:33 49.95530 17.81465 26785 ft 283 kts 96°
2026-05-05 17:33 49.95397 17.84516 26781 ft 283 kts 96°
2026-05-05 17:33 49.95262 17.87571 26777 ft 284 kts 95°
2026-05-05 17:33 49.95126 17.90622 26780 ft 283 kts 95°
2026-05-05 17:34 49.94992 17.93633 26796 ft 283 kts 96°
2026-05-05 17:34 49.94855 17.96683 26789 ft 283 kts 96°
2026-05-05 17:34 49.94717 17.99735 26790 ft 283 kts 96°
2026-05-05 17:34 49.94579 18.02782 26790 ft 283 kts 95°
2026-05-05 17:35 49.94440 18.05821 26788 ft 283 kts 95°
2026-05-05 17:35 49.94302 18.08866 26787 ft 283 kts 96°
2026-05-05 17:35 49.94159 18.11950 26794 ft 283 kts 95°
2026-05-05 17:35 49.94019 18.14953 26794 ft 282 kts 96°
2026-05-05 17:36 49.93877 18.17991 26798 ft 282 kts 96°
2026-05-05 17:36 49.93735 18.21032 26797 ft 283 kts 95°
2026-05-05 17:36 49.93591 18.24072 26798 ft 282 kts 96°
2026-05-05 17:36 49.93446 18.27115 26798 ft 282 kts 96°
2026-05-05 17:37 49.93350 18.30157 26794 ft 282 kts 94°
2026-05-05 17:37 49.93296 18.32211 26795 ft 282 kts 94°
2026-05-05 17:37 49.93157 18.36232 26796 ft 282 kts 94°
2026-05-05 17:37 49.93061 18.39267 26795 ft 282 kts 94°
2026-05-05 17:38 49.92973 18.42307 26795 ft 282 kts 94°
2026-05-05 17:38 49.92883 18.45350 26796 ft 282 kts 94°
2026-05-05 17:38 49.92789 18.48388 26797 ft 282 kts 94°
2026-05-05 17:38 49.92694 18.51433 26795 ft 283 kts 94°
2026-05-05 17:39 49.92598 18.54483 26794 ft 283 kts 94°
2026-05-05 17:39 49.92501 18.57543 26794 ft 283 kts 94°
2026-05-05 17:39 49.92405 18.60596 26793 ft 284 kts 94°
2026-05-05 17:39 49.92307 18.63653 26794 ft 285 kts 94°
2026-05-05 17:40 49.92207 18.66729 26793 ft 286 kts 94°
2026-05-05 17:40 49.92107 18.69809 26810 ft 285 kts 94°
2026-05-05 17:40 49.92006 18.72889 26809 ft 286 kts 94°
2026-05-05 17:40 49.91904 18.75975 26808 ft 287 kts 94°
2026-05-05 17:41 49.91799 18.79065 26808 ft 286 kts 94°
2026-05-05 17:41 49.91622 18.82131 26807 ft 285 kts 96°
2026-05-05 17:41 49.91462 18.85195 26806 ft 285 kts 96°
2026-05-05 17:41 49.91300 18.88269 26820 ft 286 kts 96°
2026-05-05 17:42 49.91127 18.91335 26817 ft 286 kts 96°
2026-05-05 17:42 49.90952 18.94404 26817 ft 286 kts 96°
2026-05-05 17:42 49.90779 18.97468 26813 ft 286 kts 97°
2026-05-05 17:42 49.90606 19.00545 26815 ft 286 kts 97°
2026-05-05 17:43 49.90433 19.03616 26817 ft 285 kts 96°
2026-05-05 17:43 49.90258 19.06681 26829 ft 285 kts 96°
2026-05-05 17:43 49.90081 19.09746 26831 ft 286 kts 97°
2026-05-05 17:43 49.89904 19.12813 26794 ft 286 kts 96°
2026-05-05 17:44 49.89722 19.15933 26410 ft 292 kts 97°
2026-05-05 17:44 49.89540 19.19069 26032 ft 291 kts 97°
2026-05-05 17:44 49.89359 19.22190 25661 ft 289 kts 96°
2026-05-05 17:44 49.89182 19.25268 25298 ft 285 kts 96°
2026-05-05 17:45 49.89296 19.28333 24944 ft 285 kts 79°
2026-05-05 17:45 49.89913 19.31224 24620 ft 284 kts 66°
2026-05-05 17:45 49.90704 19.34030 24294 ft 282 kts 66°
2026-05-05 17:45 49.91483 19.36786 24026 ft 279 kts 66°
2026-05-05 17:46 49.92260 19.39569 23654 ft 281 kts 66°
2026-05-05 17:46 49.93038 19.42364 23269 ft 282 kts 67°
2026-05-05 17:46 49.93814 19.45146 22832 ft 281 kts 67°
2026-05-05 17:46 49.94586 19.47926 22403 ft 279 kts 69°
2026-05-05 17:47 49.95114 19.50816 21878 ft 279 kts 80°
2026-05-05 17:47 49.95504 19.53771 21354 ft 280 kts 81°
2026-05-05 17:47 49.95899 19.56723 20853 ft 279 kts 81°
2026-05-05 17:47 49.96299 19.59661 20395 ft 277 kts 81°
2026-05-05 17:48 49.96695 19.62574 19958 ft 274 kts 82°
2026-05-05 17:48 49.97081 19.65422 19550 ft 272 kts 82°
2026-05-05 17:48 49.97468 19.68285 19158 ft 270 kts 82°
2026-05-05 17:48 49.97851 19.71124 18731 ft 267 kts 83°
2026-05-05 17:49 49.98229 19.73924 18306 ft 264 kts 83°
2026-05-05 17:49 49.98604 19.76706 17809 ft 262 kts 83°
2026-05-05 17:49 49.98980 19.79474 17227 ft 260 kts 83°
2026-05-05 17:49 49.99351 19.82212 16479 ft 259 kts 83°
2026-05-05 17:50 49.99719 19.84947 15801 ft 257 kts 83°
2026-05-05 17:50 50.00085 19.87657 15139 ft 256 kts 83°
2026-05-05 17:50 50.00451 19.90357 14484 ft 254 kts 83°
2026-05-05 17:50 50.00815 19.93040 13843 ft 253 kts 82°
2026-05-05 17:51 50.01173 19.95696 13174 ft 251 kts 82°
2026-05-05 17:51 50.01530 19.98346 12485 ft 249 kts 82°
2026-05-05 17:51 50.01885 20.00985 11768 ft 249 kts 82°
2026-05-05 17:51 50.02242 20.03614 11105 ft 247 kts 82°
2026-05-05 17:52 50.02596 20.06214 10452 ft 245 kts 82°
2026-05-05 17:52 50.02944 20.08795 9787 ft 242 kts 82°
2026-05-05 17:52 50.03288 20.11347 9059 ft 240 kts 82°
2026-05-05 17:52 50.03515 20.13032 8595 ft 239 kts 82°
2026-05-05 17:53 50.03856 20.15551 7906 ft 237 kts 81°
2026-05-05 17:53 50.04197 20.18035 7242 ft 233 kts 81°
2026-05-05 17:53 50.04880 20.20399 7021 ft 242 kts 57°
2026-05-05 17:53 50.06061 20.22206 6845 ft 239 kts 32°
2026-05-05 17:54 50.07635 20.22934 6525 ft 236 kts 358°
2026-05-05 17:54 50.09232 20.22541 6170 ft 231 kts 336°
2026-05-05 17:54 50.10627 20.21395 5864 ft 224 kts 318°
2026-05-05 17:54 50.11705 20.19711 5550 ft 216 kts 300°
2026-05-05 17:55 50.12396 20.17687 5253 ft 208 kts 284°
2026-05-05 17:55 50.12685 20.15500 4839 ft 206 kts 268°
2026-05-05 17:55 50.12582 20.13287 4420 ft 204 kts 256°
2026-05-05 17:55 50.12309 20.11131 4025 ft 201 kts 254°
2026-05-05 17:56 50.12015 20.09071 3659 ft 194 kts 253°
2026-05-05 17:56 50.11739 20.07040 3432 ft 181 kts 254°
2026-05-05 17:56 50.11491 20.05245 3296 ft 162 kts 252°
2026-05-05 17:56 50.11262 20.03615 3145 ft 148 kts 252°
2026-05-05 17:57 50.11052 20.02100 3011 ft 139 kts 251°
2026-05-05 17:57 50.10857 20.00691 3005 ft 129 kts 252°
2026-05-05 17:57 50.10671 19.99359 3003 ft 123 kts 252°
2026-05-05 17:57 50.10500 19.98122 3008 ft 111 kts 252°
2026-05-05 17:58 50.10341 19.96983 2929 ft 107 kts 252°
2026-05-05 17:58 50.10171 19.95788 2793 ft 117 kts 252°
2026-05-05 17:58 50.10007 19.94564 2639 ft 109 kts 250°
2026-05-05 17:58 50.09862 19.93502 2502 ft 94 kts 249°
2026-05-05 17:59 50.09729 19.92544 2386 ft 88 kts 248°
2026-05-05 17:59 50.09598 19.91621 2275 ft 88 kts 248°
2026-05-05 17:59 50.09468 19.90697 2148 ft 84 kts 249°
2026-05-05 17:59 50.09343 19.89813 2041 ft 83 kts 251°
2026-05-05 18:00 50.09221 19.88929 1935 ft 85 kts 251°
2026-05-05 18:00 50.09091 19.87988 1809 ft 94 kts 251°
2026-05-05 18:00 50.08949 19.86978 1683 ft 97 kts 251°
2026-05-05 18:00 50.08808 19.85963 1556 ft 95 kts 256°
2026-05-05 18:01 50.08675 19.84921 1452 ft 99 kts 255°
2026-05-05 18:01 50.08531 19.83887 1323 ft 95 kts 258°
2026-05-05 18:01 50.08387 19.82908 1174 ft 89 kts 256°
2026-05-05 18:01 50.08263 19.81969 1111 ft 90 kts 257°
2026-05-05 18:02 50.08127 19.80996 993 ft 92 kts 258°
2026-05-05 18:02 50.07987 19.80022 840 ft 93 kts 260°
2026-05-05 18:02 50.07870 19.79173 800 ft 66 kts 258°
2026-05-05 18:02 50.07804 19.78716 798 ft 19 kts 257°
2026-05-05 18:03 50.07763 19.78423 798 ft 32 kts 256°
2026-05-05 18:03 50.07713 19.78128 795 ft 18 kts 235°
2026-05-05 18:03 50.07605 19.78092 796 ft 18 kts 179°
2026-05-05 18:03 50.07502 19.78089 796 ft 13 kts 171°
2026-05-05 18:04 50.07476 19.78179 796 ft 7 kts 78°
2026-05-05 18:04 50.07497 19.78332 796 ft 21 kts 78°
2026-05-05 18:04 50.07524 19.78516 796 ft 8 kts 75°
2026-05-05 18:04 50.07544 19.78647 796 ft 7 kts 82°
2026-05-05 18:05 50.07544 19.78650 796 ft 0 kts 81°
2026-05-05 18:05 50.07547 19.78672 796 ft 6 kts 80°
2026-05-05 18:05 50.07559 19.78767 796 ft 12 kts 77°
2026-05-05 18:05 50.07577 19.78890 796 ft 13 kts 76°
2026-05-05 18:06 50.07595 19.79025 796 ft 14 kts 75°
2026-05-05 18:06 50.07610 19.79133 796 ft 17 kts 79°
2026-05-05 18:06 50.07647 19.79381 796 ft 18 kts 78°
2026-05-05 18:06 50.07672 19.79579 796 ft 19 kts 78°
2026-05-05 18:07 50.07699 19.79774 796 ft 12 kts 78°
2026-05-05 18:07 50.07662 19.79882 796 ft 14 kts 168°
2026-05-05 18:07 50.07608 19.79950 796 ft 6 kts 81°
2026-05-05 18:07 50.07616 19.80011 796 ft 2 kts 78°
2026-05-05 18:08 50.07634 19.80038 796 ft 6 kts 349°
2026-05-05 18:08 50.07652 19.80020 796 ft 0 kts 352°
2026-05-05 18:08 50.07661 19.80017 796 ft 2 kts 348°
2026-05-05 18:08 50.07664 19.80016 796 ft 0 kts 346°
2026-05-05 18:09 50.07670 19.80014 796 ft 1 kts 347°
2026-05-05 18:09 50.07673 19.80013 796 ft 0 kts 347°